星链-35498(STARLINK-35498)

导读

STARLINK-35498是美国于2025年12月10日发射的Starlink星链卫星,星链是SpaceX打造的低轨卫星互联网星座项目,该卫星旨在为全球提供高速低延迟宽带网络服务,覆盖偏远、网络基础设施薄弱区域,充实星链星座组网规模,进一步提升星座服务覆盖能力与网络稳定性。

Basic Information
目录编号:
67017
目录名称:
STARLINK-35498
国际标识:
2025-293Q
轨道中心:
EARTH
卫星名称:
星链-35498
卫星全名:
星链-35498(STARLINK-35498)
卫星状态:
在轨 (已飞行185 天)
发射日期:
2025-12-10 UTC
国别 :
美国 (US)
星等 :
--
Orbit Information
数据来源 国际轨道数据 AOE轨道数据
星历时间 2026-06-13T13:59:01+0800
6小时前
查看轨道信息
2026-06-08T03:00:00+0800
5天前
查看轨道信息
半长轴 6950.176km 6950.09km
偏心率 0.0003721 0.0003396
轨道倾角 70.000° 69.999°
近地点辐角 266.529° 278.442°
升交点赤经 213.436° 227.197°
平近点角 93.544° 171.523°
近地点 569.452km 569.592km
远地点 574.626km 574.314km
周期 96.107分钟 96.105分钟
每日圈数 14.983355 14.983633
Detailed Information
固有亮度:
5
最大亮度:
2.5
卫星平台:
Starlink V1.0
覆盖范围:
全球
运营商:
太空探索技术公司
运营商所在国:
美国
制造商(研发单位):
太空探索技术公司
制造商所在国:
美国
使用方式:
暂无
Satellite Introduction
Starlink 计划是 SpaceX 推出的全球卫星互联网项目,通过发射低轨道卫星,为全球尤其是偏远地区提供高速、低延迟的互联网服务。自 2019 年起,Starlink 已部署数千颗卫星,旨在缩小全球数字鸿沟,推动互联网普及。该项目还为军事、航空等行业提供通信支持,带来广泛经济效益。
2D Orbit Map
3D Orbit Map
Orbit Altitude Analysis Chart
Orbit Inclination Analysis Chart
Orbit Comprehensive Analysis Chart
View Comprehensive Chart